Simultaneous Nadir Overpasses (SNOs) Predictions

Prediction of SNOs between LANDSAT-8 and METOP-A Satellite Orbit:

Table of predicted SNOs for the next 14.0 days since TLE Epoch: 11/12/2016
Index Date (LANDSAT-8) Time (LANDSAT-8) Lat,Lon (LANDSAT-8) SZA (LANDSAT-8 ) Date (METOP-A) Time (METOP-A) Lat,Lon (METOP-A) SZA (METOP-A ) Distance(km) Time Diff (sec)
1 11/13/2016 07:31:46 -81.10, -73.36 78.49 11/13/2016 07:30:34 -81.10, -73.46 78.53 1.68 72
2 11/13/2016 08:21:11 81.13, 94.75 101.60 11/13/2016 08:21:12 81.14, 94.86 101.61 1.83 1
3 11/13/2016 09:10:18 -81.52, -90.07 77.32 11/13/2016 09:11:32 -81.31, -89.74 77.38 24.30 74
4 11/16/2016 03:06:01 -81.11, -6.72 77.76 11/16/2016 03:04:55 -81.12, -6.70 77.78 0.21 66
5 11/16/2016 03:55:26 81.14, 161.37 102.32 11/16/2016 03:55:34 81.13, 161.19 102.30 3.33 8
6
